Wind_Speed
48 48 50 51 53 55 54 48 46 46 45 45 45 44 42 41 40 42 42 40 37 36 35 35 34 33 31 29 28 26 24 21 20 18 17 17 16 15 14 13 12 11 10 9 9 8 7 6 6
49 50 52 54 56 56 52 48 48 49 49 49 49 49 47 44 43 44 44 41 39 37 36 36 36 35 33 31 30 28 26 24 22 20 19 18 17 17 16 15 14 13 12 11 10 9 8 8 7
50 51 53 56 57 55 52 50 51 52 52 52 52 52 50 48 46 45 45 43 41 39 37 38 38 37 35 33 32 30 28 26 24 22 21 20 19 18 17 16 15 14 13 12 11 11 10 9 9
50 51 54 56 56 54 52 52 54 54 54 54 54 54 53 51 50 49 48 45 43 41 39 39 40 39 37 35 34 32 30 28 26 24 23 22 21 20 19 18 17 16 15 14 13 12 11 11 10
49 51 53 55 55 53 52 52 53 55 55 54 55 55 55 54 52 51 50 48 45 44 42 41 41 41 39 38 35 34 32 30 28 26 25 23 22 21 20 19 18 18 17 15 14 13 13 12 11
48 50 52 52 52 53 52 51 53 55 55 56 57 57 57 57 54 54 52 49 48 46 44 43 42 42 41 40 37 36 34 32 30 29 27 25 24 23 22 21 20 19 18 17 15 14 14 13 12
46 48 49 49 49 50 51 52 53 56 57 57 58 59 59 59 57 55 54 52 50 49 46 44 44 44 43 42 39 37 36 34 32 31 29 27 25 24 23 22 21 20 19 18 17 16 15 14 13
43 45 46 45 45 46 48 52 53 54 56 57 58 60 61 59 59 57 56 54 51 51 49 46 46 45 44 43 42 40 37 36 34 32 30 29 27 26 24 23 22 21 20 19 18 17 16 15 15
40 41 41 40 42 44 46 50 52 53 54 56 58 59 60 60 59 57 56 56 54 53 51 49 48 47 46 45 43 41 39 37 36 34 32 30 29 27 26 24 24 22 21 20 19 19 18 17 17
36 37 36 38 40 40 43 46 48 51 52 54 55 56 57 59 59 58 57 57 57 56 53 51 50 49 47 46 45 43 41 39 37 35 33 32 30 28 27 26 25 23 22 22 21 20 20 19 18
33 34 35 36 38 38 40 43 46 50 50 51 52 50 54 55 58 58 56 57 58 57 56 52 50 50 49 47 46 45 42 40 38 37 35 33 31 30 28 27 26 25 24 23 22 22 21 20 20
31 32 33 33 34 36 37 40 44 48 48 49 50 50 52 53 56 57 55 56 57 58 57 55 52 51 51 49 48 46 44 42 40 38 36 34 33 31 30 29 28 26 25 25 24 23 23 22 22
28 28 29 29 30 30 32 36 39 42 42 46 48 49 51 52 54 55 55 56 58 58 58 56 53 53 51 50 49 48 46 44 42 40 38 36 34 33 32 30 29 28 27 26 25 25 24 24 24
25 25 24 24 23 24 26 29 33 32 37 41 44 45 47 49 50 55 57 57 57 58 59 57 54 52 52 50 50 48 46 44 43 41 39 38 37 35 34 32 31 30 29 28 27 27 26 26 25
20 20 19 19 20 20 22 23 24 27 33 37 39 42 45 47 49 51 54 56 56 57 57 57 56 54 54 53 51 49 47 46 44 42 41 39 38 37 36 34 33 32 31 30 29 29 28 27 27
17 17 16 16 17 17 18 18 19 22 28 32 36 38 41 42 45 48 52 54 55 56 56 55 55 54 54 52 51 50 49 47 45 43 42 40 40 38 37 36 35 34 33 32 31 30 29 29 29
15 15 14 14 14 16 17 16 19 19 23 28 31 33 35 39 42 44 47 51 52 53 55 54 53 54 54 52 51 51 49 48 46 44 43 42 41 40 39 38 37 36 35 34 33 33 32 32 31
13 12 11 11 12 14 14 14 15 16 19 23 26 29 31 35 38 39 42 48 51 51 53 56 53 52 53 52 51 50 50 49 48 46 45 44 42 41 41 40 39 38 37 36 35 34 34 34 34
10 9 7 7 8 9 9 11 11 13 17 20 22 25 27 29 33 36 40 44 49 50 51 55 53 51 52 52 50 50 49 48 48 48 46 45 42 42 42 41 40 40 39 37 37 36 36 36 36
8 7 6 4 5 6 7 7 7 9 14 17 19 21 23 25 29 34 38 42 46 49 50 53 52 51 52 51 49 50 49 47 47 47 46 44 43 43 43 42 41 40 40 39 39 39 38 38 37
5 4 3 3 4 4 4 4 5 7 10 12 14 17 20 23 27 30 35 40 43 45 47 49 52 51 50 48 46 46 46 46 45 46 46 45 44 44 44 44 43 42 42 42 41 41 41 40 40
2 3 1 1 1 1 1 1 4 7 8 10 11 14 16 20 22 28 32 35 39 41 43 45 46 47 48 48 45 43 45 45 45 45 45 45 44 45 46 45 44 44 44 43 44 44 43 43 43
1 2 2 2 2 2 2 1 4 7 8 8 9 12 14 17 18 23 28 32 34 37 39 38 39 42 44 45 43 41 43 44 44 45 45 46 45 45 45 45 45 44 45 46 46 45 45 45 45
3 3 4 4 3 3 3 4 6 6 6 7 9 12 12 14 16 19 24 29 31 34 35 35 36 38 40 42 41 40 41 43 42 44 43 43 45 45 45 46 46 47 47 48 48 47 48 48 47
4 5 5 5 4 4 4 4 5 5 5 6 7 10 12 13 14 16 20 24 26 29 30 31 32 34 37 38 38 38 38 41 42 44 45 45 46 46 46 46 47 48 48 48 48 49 49 49 49
4 4 6 5 4 5 4 5 4 4 4 5 6 7 9 10 11 13 17 22 24 25 26 25 26 29 33 35 35 36 36 39 42 43 46 46 46 46 47 47 47 49 50 50 50 51 51 51 51
4 4 5 5 5 5 5 5 5 5 5 6 5 5 8 9 9 11 13 17 19 20 22 24 24 26 30 32 32 34 35 36 38 41 43 43 44 45 46 47 49 50 52 52 53 53 53 53 52
5 4 4 5 4 5 6 6 5 5 4 4 4 5 5 7 7 8 9 12 15 16 17 19 22 24 25 27 27 28 31 33 34 35 38 40 41 43 44 46 47 48 50 52 53 54 54 53 53
4 4 4 4 4 4 4 4 4 4 4 4 5 4 4 4 4 6 7 10 12 14 16 17 18 21 22 24 26 27 28 30 32 33 35 38 40 40 42 43 44 45 47 50 52 53 53 54 54
4 4 3 3 3 3 3 4 4 3 3 4 4 3 3 2 4 6 8 9 10 12 14 16 18 20 21 23 25 26 29 31 32 33 35 38 41 42 44 44 45 47 49 49 50 51 51 51 51
Wind_Direction
260 259 258 257 256 255 256 257 255 252 251 249 247 247 246 244 243 242 242 241 238 236 233 231 232 231 231 231 232 233 235 236 237 239 239 239 239 239 239 238 238 238 240 244 243 241 241 240 241
261 259 259 258 256 256 256 256 254 252 250 248 246 244 243 242 241 242 241 240 238 236 234 232 231 231 231 231 231 232 233 235 236 237 238 238 238 239 239 239 239 240 242 245 245 242 242 244 245
262 261 260 259 258 257 257 255 253 251 248 246 245 243 242 241 241 242 241 240 238 236 234 231 231 231 230 230 231 231 232 234 235 236 237 238 238 239 239 239 240 240 242 244 246 243 244 245 246
263 262 261 259 259 258 256 254 252 250 247 244 243 242 241 240 240 241 241 240 238 236 233 231 230 230 230 229 230 230 230 232 234 235 236 237 237 239 240 240 241 241 242 244 245 245 246 247 246
265 264 262 261 260 258 255 253 250 248 247 244 243 242 241 239 240 240 240 238 237 235 233 231 230 229 229 228 229 229 229 231 233 234 234 235 236 237 239 241 242 242 243 244 245 247 247 247 246
267 266 264 263 262 257 254 251 248 246 244 243 241 240 239 238 239 239 238 237 235 234 232 230 229 228 228 228 228 228 229 230 231 232 233 234 235 237 238 241 242 243 243 244 244 246 247 248 247
267 268 267 265 263 258 255 250 248 246 243 241 240 239 238 238 237 237 235 234 232 232 231 229 228 227 227 227 227 227 228 229 230 231 233 234 236 236 238 240 242 243 244 244 244 245 247 248 248
270 269 267 266 263 259 255 250 248 246 243 239 238 238 237 236 236 236 234 232 230 230 230 228 227 226 226 226 226 227 227 229 229 231 232 233 235 236 237 240 241 243 244 244 245 246 247 248 249
270 271 270 267 262 258 253 249 245 244 241 238 236 236 236 234 235 233 232 230 228 227 227 226 226 224 224 225 226 226 226 228 229 231 232 233 235 237 238 240 241 243 244 245 246 247 247 249 250
273 274 272 266 262 261 254 251 246 244 240 237 235 235 235 233 232 231 231 229 228 226 226 226 224 224 223 224 225 226 226 228 229 231 232 233 235 236 238 240 242 243 244 246 248 248 248 249 250
275 276 273 268 265 262 257 251 246 244 239 235 233 232 230 229 229 228 228 228 226 224 224 223 223 222 222 222 224 225 226 228 229 231 232 233 235 236 238 240 242 243 245 246 248 248 249 250 251
279 279 274 270 269 264 258 252 246 244 238 234 231 229 227 226 225 223 223 224 223 223 221 220 220 220 221 222 223 225 226 227 228 230 232 233 235 237 238 239 241 243 245 247 248 249 250 251 252
281 282 278 273 271 265 256 250 246 241 235 232 229 227 225 223 222 220 220 221 220 220 219 218 217 219 220 221 222 224 225 226 228 231 232 234 235 237 239 240 242 244 245 246 248 250 251 252 254
284 283 283 273 268 263 258 252 246 236 232 230 226 224 221 221 220 218 217 218 217 217 217 216 214 218 219 220 222 222 223 225 227 229 232 234 236 238 239 241 242 244 245 247 249 250 251 252 254
288 285 282 273 266 265 259 251 243 237 230 226 222 222 220 219 219 217 216 216 215 215 216 216 215 216 218 220 221 223 224 225 227 228 231 235 237 237 239 241 242 244 246 247 248 249 251 253 255
288 287 282 272 266 265 260 250 241 236 229 225 221 221 218 217 218 216 215 215 214 213 214 214 215 216 217 220 221 222 225 226 227 228 230 234 236 237 239 241 242 244 246 248 249 250 251 254 257
292 289 282 272 263 261 260 248 239 234 227 223 220 219 219 217 215 215 214 214 211 211 212 213 212 214 217 219 219 223 224 224 226 228 230 232 236 238 239 241 242 244 246 248 249 250 252 255 258
298 293 287 275 264 266 262 249 238 233 222 221 218 215 216 217 213 214 214 212 210 210 211 212 211 213 216 218 220 223 224 224 227 229 232 233 236 240 241 242 244 245 247 249 251 252 253 256 258
307 299 297 291 273 268 256 249 241 224 217 217 214 212 215 216 213 214 213 210 210 210 210 211 212 213 215 218 221 222 224 226 230 231 234 235 237 240 241 243 245 246 248 249 251 252 255 257 260
309 305 302 288 268 261 251 240 227 215 212 212 210 210 209 212 213 215 214 209 209 210 212 212 214 216 216 218 220 222 224 227 229 231 233 236 239 241 241 243 246 247 248 249 251 253 256 258 260
321 317 312 262 245 246 219 207 197 194 200 204 209 210 212 213 210 213 212 209 210 210 211 212 213 214 217 219 219 221 224 226 230 232 235 237 240 242 242 244 246 248 250 251 252 255 257 259 260
350 352 350 218 238 212 203 195 194 196 195 204 202 200 209 209 210 214 213 211 211 211 212 213 212 215 218 220 222 225 226 227 230 235 237 238 242 244 245 246 247 249 250 251 253 255 258 259 261
27 27 64 114 124 118 111 115 147 183 184 197 198 198 204 207 209 213 216 213 212 212 211 212 214 218 220 222 223 225 226 228 232 236 237 239 242 245 247 248 249 251 252 254 255 257 259 261 262
108 92 106 118 114 114 117 128 134 149 178 189 194 200 203 208 215 215 216 216 215 213 211 215 220 222 223 223 226 230 232 231 232 237 241 244 245 247 250 251 251 252 254 255 257 258 260 262 263
111 108 116 118 107 113 119 128 134 138 157 172 184 198 204 211 216 215 215 218 217 216 215 220 224 224 225 224 228 231 234 234 235 238 241 245 247 249 251 252 253 254 255 256 258 259 261 262 263
121 112 114 112 104 109 109 117 120 132 142 153 165 177 192 198 209 217 223 228 227 222 221 226 231 230 229 228 232 233 238 239 241 243 245 247 249 251 252 254 255 255 256 257 259 260 261 262 263
129 127 123 115 112 110 106 115 104 107 121 132 151 170 182 189 201 216 226 231 231 230 234 235 235 234 234 233 238 241 242 245 246 247 247 249 251 251 252 255 258 258 259 260 261 261 262 264 265
138 129 124 133 132 109 105 109 103 97 103 125 136 154 163 174 188 208 223 231 233 235 238 241 241 243 244 243 245 251 252 252 251 252 252 252 252 253 255 257 259 260 262 263 264 264 264 264 265
138 138 128 127 125 121 108 101 101 94 97 113 131 136 159 169 189 211 220 225 231 239 243 246 249 249 254 254 256 259 259 259 258 257 256 256 256 257 259 261 262 263 264 264 264 264 264 264 265
128 134 136 123 124 116 94 100 101 103 95 104 135 148 162 187 198 206 214 223 232 237 244 250 254 260 263 264 265 267 268 266 264 262 262 262 261 261 262 264 265 266 266 266 266 265 265 263 263
Height
5765 5766 5767 5768 5768 5768 5773 5782 5787 5791 5795 5798 5801 5804 5807 5812 5815 5819 5820 5824 5830 5835 5839 5842 5846 5849 5852 5855 5858 5860 5862 5865 5866 5868 5869 5870 5871 5873 5874 5875 5876 5876 5877 5878 5878 5879 5879 5880 5880
5753 5755 5755 5755 5755 5757 5765 5773 5775 5780 5784 5787 5791 5794 5798 5803 5806 5808 5812 5817 5823 5829 5834 5837 5841 5844 5847 5850 5853 5856 5859 5861 5863 5865 5866 5868 5869 5870 5872 5873 5874 5875 5876 5876 5877 5878 5878 5879 5879
5741 5742 5742 5741 5743 5748 5756 5761 5764 5768 5772 5776 5780 5784 5789 5794 5797 5799 5804 5810 5816 5822 5827 5831 5835 5839 5842 5846 5849 5852 5855 5857 5860 5862 5863 5865 5866 5868 5869 5871 5872 5873 5874 5875 5875 5876 5877 5877 5878
5728 5728 5728 5729 5732 5739 5745 5748 5750 5753 5758 5763 5768 5773 5779 5784 5787 5791 5797 5803 5809 5815 5821 5825 5829 5833 5837 5840 5844 5847 5850 5853 5856 5858 5860 5862 5863 5865 5867 5868 5869 5870 5872 5872 5873 5874 5875 5875 5876
5715 5715 5715 5716 5721 5726 5731 5734 5736 5739 5745 5750 5755 5761 5767 5772 5777 5782 5788 5795 5801 5808 5814 5818 5822 5827 5831 5835 5839 5842 5845 5849 5851 5854 5856 5858 5860 5862 5864 5865 5867 5868 5869 5870 5871 5872 5873 5873 5874
5703 5703 5703 5704 5708 5713 5717 5720 5722 5726 5732 5737 5742 5748 5754 5761 5766 5772 5779 5787 5793 5799 5806 5811 5816 5821 5825 5829 5833 5837 5840 5844 5847 5850 5852 5854 5856 5858 5860 5862 5864 5865 5866 5868 5869 5870 5871 5871 5872
5692 5691 5692 5693 5695 5699 5704 5706 5708 5712 5717 5724 5730 5735 5742 5749 5755 5763 5770 5777 5784 5791 5798 5804 5809 5814 5819 5823 5828 5831 5835 5838 5842 5845 5848 5850 5852 5855 5857 5859 5860 5862 5863 5865 5866 5867 5868 5869 5870
5681 5681 5681 5683 5683 5686 5689 5691 5695 5698 5704 5711 5716 5722 5729 5738 5744 5752 5760 5768 5775 5782 5789 5796 5801 5807 5812 5817 5821 5826 5829 5833 5837 5840 5843 5846 5848 5850 5853 5855 5857 5858 5860 5862 5863 5864 5865 5866 5867
5670 5672 5672 5673 5672 5674 5675 5677 5681 5685 5690 5697 5702 5709 5718 5725 5733 5741 5749 5758 5765 5773 5781 5788 5793 5799 5805 5810 5815 5819 5823 5827 5831 5835 5838 5841 5844 5846 5849 5851 5853 5855 5857 5858 5860 5861 5862 5863 5864
5662 5663 5663 5662 5661 5662 5664 5666 5670 5672 5677 5683 5690 5697 5705 5712 5720 5729 5738 5747 5756 5764 5772 5779 5784 5791 5797 5803 5808 5813 5818 5822 5826 5830 5833 5836 5839 5842 5844 5847 5849 5851 5853 5855 5856 5858 5859 5860 5861
5653 5654 5653 5652 5651 5651 5653 5655 5657 5659 5665 5672 5678 5685 5692 5700 5708 5718 5727 5736 5745 5753 5762 5770 5776 5783 5790 5796 5802 5807 5812 5816 5820 5824 5828 5831 5834 5837 5840 5842 5845 5847 5849 5851 5852 5854 5855 5856 5857
5646 5645 5644 5643 5642 5641 5642 5643 5646 5648 5655 5661 5666 5672 5679 5688 5696 5706 5715 5724 5733 5741 5751 5760 5767 5775 5782 5788 5794 5800 5805 5810 5814 5818 5822 5826 5829 5832 5835 5838 5840 5843 5845 5846 5848 5849 5851 5852 5853
5638 5637 5635 5634 5633 5633 5632 5633 5635 5639 5646 5650 5655 5662 5669 5677 5686 5695 5703 5713 5722 5731 5741 5750 5759 5767 5774 5781 5787 5792 5797 5803 5808 5812 5816 5820 5824 5827 5830 5833 5835 5838 5840 5841 5843 5845 5846 5847 5849
5632 5630 5629 5628 5626 5626 5625 5627 5628 5632 5637 5641 5646 5653 5660 5668 5676 5684 5693 5703 5711 5721 5732 5741 5750 5758 5766 5773 5779 5785 5790 5796 5801 5805 5810 5813 5817 5821 5824 5827 5830 5832 5834 5836 5838 5840 5841 5843 5844
5627 5626 5624 5623 5622 5621 5621 5623 5624 5625 5629 5633 5639 5645 5652 5660 5667 5676 5685 5693 5702 5712 5722 5732 5741 5750 5757 5764 5771 5777 5783 5789 5794 5799 5803 5807 5811 5815 5818 5821 5824 5826 5829 5831 5832 5834 5836 5837 5839
5623 5621 5620 5620 5618 5617 5618 5620 5621 5620 5623 5627 5633 5639 5646 5653 5660 5668 5676 5684 5693 5702 5713 5722 5732 5741 5749 5756 5762 5770 5775 5781 5787 5791 5796 5800 5804 5808 5811 5814 5817 5820 5822 5825 5827 5828 5830 5832 5833
5619 5618 5616 5616 5615 5614 5614 5616 5618 5617 5620 5624 5629 5635 5641 5647 5654 5661 5669 5677 5685 5694 5704 5714 5724 5733 5741 5748 5754 5761 5767 5773 5779 5784 5789 5793 5797 5801 5805 5808 5810 5813 5816 5818 5820 5822 5824 5825 5827
5617 5615 5614 5613 5612 5612 5612 5613 5615 5615 5617 5621 5625 5631 5637 5642 5649 5655 5662 5670 5678 5686 5696 5707 5716 5726 5733 5740 5746 5753 5759 5765 5771 5776 5781 5786 5790 5794 5797 5800 5803 5806 5809 5811 5814 5815 5817 5819 5820
5615 5613 5612 5611 5611 5611 5611 5612 5613 5614 5617 5620 5623 5628 5634 5639 5645 5651 5657 5664 5673 5681 5690 5699 5709 5718 5726 5733 5739 5745 5751 5757 5763 5769 5773 5778 5782 5786 5789 5792 5796 5799 5802 5804 5806 5808 5810 5811 5813
5614 5612 5612 5611 5610 5610 5610 5611 5612 5614 5616 5619 5623 5627 5632 5637 5643 5649 5655 5662 5669 5676 5685 5693 5702 5710 5718 5726 5732 5738 5744 5750 5755 5760 5765 5770 5774 5778 5781 5784 5788 5791 5794 5796 5798 5800 5802 5803 5805
5614 5612 5612 5611 5611 5611 5611 5612 5613 5614 5617 5619 5623 5627 5631 5636 5641 5646 5652 5659 5666 5673 5681 5688 5696 5704 5712 5718 5725 5730 5736 5741 5747 5752 5757 5762 5766 5769 5773 5776 5779 5782 5785 5787 5790 5791 5793 5795 5796
5614 5613 5612 5612 5612 5612 5613 5613 5614 5615 5617 5620 5623 5627 5631 5635 5639 5644 5650 5656 5663 5670 5678 5684 5691 5699 5706 5712 5718 5724 5729 5735 5741 5745 5749 5753 5757 5761 5764 5767 5770 5773 5775 5778 5780 5782 5784 5785 5787
5614 5613 5613 5613 5613 5614 5614 5615 5617 5617 5618 5620 5623 5627 5631 5635 5639 5644 5649 5655 5661 5667 5674 5681 5687 5694 5701 5707 5713 5717 5723 5728 5733 5737 5741 5745 5748 5752 5755 5758 5761 5763 5766 5768 5770 5772 5774 5775 5777
5615 5615 5615 5615 5615 5616 5617 5618 5619 5619 5620 5622 5625 5628 5632 5635 5639 5643 5648 5654 5659 5665 5672 5678 5684 5689 5695 5701 5706 5711 5716 5720 5725 5729 5733 5736 5739 5743 5745 5748 5751 5753 5755 5757 5759 5761 5763 5764 5766
5617 5617 5617 5617 5617 5618 5619 5619 5621 5621 5622 5624 5627 5629 5632 5635 5639 5643 5648 5653 5658 5664 5669 5675 5680 5685 5690 5696 5700 5705 5709 5712 5716 5720 5724 5727 5730 5733 5736 5738 5740 5742 5744 5746 5748 5749 5751 5753 5754
5617 5618 5619 5619 5619 5620 5620 5621 5623 5623 5624 5626 5628 5630 5632 5636 5639 5643 5648 5652 5657 5662 5667 5672 5677 5681 5686 5691 5695 5698 5701 5705 5708 5712 5715 5718 5721 5723 5726 5727 5729 5731 5732 5734 5735 5737 5739 5740 5742
5619 5619 5620 5621 5621 5622 5622 5623 5624 5625 5626 5627 5629 5631 5633 5636 5639 5643 5647 5651 5655 5660 5665 5669 5674 5678 5681 5686 5689 5692 5695 5697 5700 5703 5705 5708 5710 5712 5714 5716 5718 5719 5720 5721 5722 5724 5725 5727 5728
5621 5621 5622 5622 5622 5623 5624 5625 5626 5627 5628 5629 5630 5632 5634 5637 5640 5644 5647 5650 5654 5658 5662 5666 5670 5674 5677 5680 5682 5685 5688 5690 5692 5694 5696 5698 5700 5702 5703 5704 5706 5706 5707 5708 5709 5709 5711 5712 5714
5622 5623 5623 5623 5624 5625 5625 5629 5627 5628 5629 5631 5632 5634 5636 5638 5640 5643 5646 5650 5653 5657 5660 5663 5667 5670 5673 5675 5677 5679 5681 5682 5684 5685 5687 5688 5690 5691 5692 5693 5694 5694 5694 5695 5695 5696 5696 5698 5700
5623 5624 5625 5626 5626 5626 5627 5632 5629 5630 5631 5632 5633 5634 5636 5638 5640 5643 5646 5648 5651 5654 5657 5660 5663 5665 5668 5670 5671 5673 5673 5674 5676 5677 5677 5678 5679 5680 5680 5681 5682 5682 5682 5682 5682 5683 5683 5684 5686